ギブス彗星

428P/Gibbs (2021)

English version
Home page
Updated on December 18, 2022

---------------------------------------------------------------------

・ プロフィール

符号 428P/2021 Q1
検出日 2021年8月16日
検出光度 20.0等
検出者 E. Schwab (Egelsbach, Germany)

・ 写真集

・ 軌道要素

Epoch 2022 Jan. 21.0 TT = JDT 2459600.5
T 2021 May 14.66636 TT                                  Rudenko
q   1.6741293            (2000.0)            P               Q
n   0.15154433     Peri.   36.81738     +0.90887405     +0.39659336
a   3.4842523      Node   299.33623     -0.40919025     +0.78804141
e   0.5195155      Incl.    8.51501     -0.08069267     +0.47085502
P   6.50
From 121 observations 2014 June 21-2021 Dec. 14, mean residual 0".6.

・ 星図

・ 光度変化

        m1 = 16.0 + 5 logΔ + 10.0 log r

        ※ 灰色の曲線は、m1 = 14.0 + 5 logΔ + 10.0 log r の光度曲線です。

---------------------------------------------------------------------

軌道要素はM.P.E.C. 2022-C56に掲載されたものです。
星図はステラナビゲータ Ver.10 (アストロアーツ) で作成したものです。
光度グラフはComet for Windowsで作成したものです。

---------------------------------------------------------------------

Copyright(C) Seiichi Yoshida (comet@aerith.net). All rights reserved.